Time,TemperatureF,DewpointF,PressureIn,WindDirection,WindDirectionDegrees,WindSpeedMPH,WindSpeedGustMPH,Humidity,HourlyPrecipIn,Conditions,Clouds,dailyrainin,SoftwareType,DateUTC
2013-05-23 00:14:00,60.2,55.0,29.87,WNW,298,0.0,2.0,84,0.00,,,0.00,weatherlink.com 1.10,2013-05-23 05:14:00,
2013-05-23 00:20:00,60.2,55.0,29.87,WNW,298,1.0,4.0,84,0.00,,,0.00,weatherlink.com 1.10,2013-05-23 05:20:00,
2013-05-23 00:35:00,60.1,55.0,29.87,WNW,285,3.0,4.0,83,0.00,,,0.00,weatherlink.com 1.10,2013-05-23 05:35:00,
2013-05-23 00:50:00,60.0,55.0,29.88,WSW,252,1.0,6.0,83,0.00,,,0.00,weatherlink.com 1.10,2013-05-23 05:50:00,
2013-05-23 01:05:00,59.8,55.0,29.88,WSW,252,0.0,4.0,83,0.00,,,0.00,weatherlink.com 1.10,2013-05-23 06:05:00,
2013-05-23 01:20:00,59.7,55.0,29.88,WSW,252,3.0,4.0,83,0.00,,,0.00,weatherlink.com 1.10,2013-05-23 06:20:00,
2013-05-23 01:35:00,59.6,54.0,29.88,WSW,252,1.0,8.0,81,0.00,,,0.00,weatherlink.com 1.10,2013-05-23 06:35:00,
2013-05-23 01:50:00,59.6,53.0,29.88,West,281,3.0,7.0,80,0.00,,,0.00,weatherlink.com 1.10,2013-05-23 06:50:00,
2013-05-23 02:05:00,59.6,53.0,29.88,West,279,1.0,5.0,80,0.00,,,0.00,weatherlink.com 1.10,2013-05-23 07:05:00,
2013-05-23 02:20:00,59.5,53.0,29.88,WNW,288,2.0,4.0,79,0.00,,,0.00,weatherlink.com 1.10,2013-05-23 07:20:00,
2013-05-23 02:35:00,59.4,53.0,29.88,NW,315,1.0,5.0,80,0.00,,,0.00,weatherlink.com 1.10,2013-05-23 07:35:00,
2013-05-23 02:50:00,59.2,53.0,29.88,WNW,299,0.0,5.0,81,0.00,,,0.00,weatherlink.com 1.10,2013-05-23 07:50:00,
2013-05-23 03:05:00,58.9,53.0,29.88,WNW,299,2.0,6.0,81,0.00,,,0.00,weatherlink.com 1.10,2013-05-23 08:05:00,
2013-05-23 03:20:00,58.6,53.0,29.88,NW,317,0.0,10.0,82,0.00,,,0.00,weatherlink.com 1.10,2013-05-23 08:20:00,
2013-05-23 03:35:00,58.3,53.0,29.89,West,273,1.0,8.0,82,0.00,,,0.00,weatherlink.com 1.10,2013-05-23 08:35:00,
2013-05-23 03:50:00,58.0,53.0,29.89,NW,311,6.0,8.0,82,0.00,,,0.00,weatherlink.com 1.10,2013-05-23 08:50:00,
2013-05-23 04:05:00,57.9,52.0,29.89,NW,321,0.0,6.0,82,0.00,,,0.00,weatherlink.com 1.10,2013-05-23 09:05:00,
2013-05-23 04:20:00,57.6,52.0,29.89,NW,309,3.0,8.0,81,0.00,,,0.00,weatherlink.com 1.10,2013-05-23 09:20:00,
2013-05-23 04:35:00,57.3,52.0,29.90,WNW,300,1.0,10.0,81,0.00,,,0.00,weatherlink.com 1.10,2013-05-23 09:35:00,
2013-05-23 04:50:00,56.7,51.0,29.91,NW,319,0.0,11.0,81,0.00,,,0.00,weatherlink.com 1.10,2013-05-23 09:50:00,
2013-05-23 05:06:00,56.0,51.0,29.91,NW,319,4.0,7.0,82,0.00,,,0.00,weatherlink.com 1.10,2013-05-23 10:06:00,
2013-05-23 05:21:00,55.7,51.0,29.92,WNW,292,3.0,9.0,83,0.00,,,0.00,weatherlink.com 1.10,2013-05-23 10:21:00,
2013-05-23 05:36:00,55.9,51.0,29.93,NW,308,0.0,6.0,83,0.00,,,0.00,weatherlink.com 1.10,2013-05-23 10:36:00,
2013-05-23 05:51:00,56.4,51.0,29.93,NW,314,4.0,7.0,82,0.00,,,0.00,weatherlink.com 1.10,2013-05-23 10:51:00,
2013-05-23 06:06:00,56.5,51.0,29.94,WNW,286,0.0,9.0,82,0.00,,,0.00,weatherlink.com 1.10,2013-05-23 11:06:00,
2013-05-23 06:21:00,56.6,51.0,29.95,WNW,282,5.0,12.0,81,0.00,,,0.00,weatherlink.com 1.10,2013-05-23 11:21:00,
2013-05-23 06:36:00,56.6,51.0,29.95,WNW,286,2.0,14.0,81,0.00,,,0.00,weatherlink.com 1.10,2013-05-23 11:36:00,
2013-05-23 06:51:00,56.8,51.0,29.96,West,281,0.0,15.0,81,0.00,,,0.00,weatherlink.com 1.10,2013-05-23 11:51:00,
2013-05-23 07:06:00,56.9,52.0,29.97,NW,311,2.0,9.0,82,0.00,,,0.00,weatherlink.com 1.10,2013-05-23 12:06:00,
2013-05-23 07:21:00,57.0,52.0,29.97,NW,305,7.0,11.0,83,0.00,,,0.00,weatherlink.com 1.10,2013-05-23 12:21:00,
2013-05-23 07:36:00,57.1,52.0,29.98,SW,233,0.0,9.0,83,0.00,,,0.00,weatherlink.com 1.10,2013-05-23 12:36:00,
2013-05-23 07:51:00,57.5,52.0,29.98,NNW,344,6.0,12.0,82,0.00,,,0.00,weatherlink.com 1.10,2013-05-23 12:51:00,
2013-05-23 08:06:00,57.6,52.0,29.99,WNW,294,3.0,16.0,82,0.00,,,0.00,weatherlink.com 1.10,2013-05-23 13:06:00,
2013-05-23 08:21:00,57.6,53.0,29.99,NNW,337,2.0,12.0,83,0.00,,,0.00,weatherlink.com 1.10,2013-05-23 13:21:00,
2013-05-23 08:36:00,57.7,52.0,30.00,NW,310,3.0,11.0,82,0.00,,,0.00,weatherlink.com 1.10,2013-05-23 13:36:00,
2013-05-23 08:51:00,57.7,52.0,30.01,West,259,6.0,11.0,82,0.00,,,0.00,weatherlink.com 1.10,2013-05-23 13:51:00,
2013-05-23 09:06:00,57.9,52.0,30.02,NW,316,7.0,12.0,82,0.00,,,0.00,weatherlink.com 1.10,2013-05-23 14:06:00,
2013-05-23 09:21:00,58.4,53.0,30.02,West,259,3.0,9.0,82,0.00,,,0.00,weatherlink.com 1.10,2013-05-23 14:21:00,
2013-05-23 09:36:00,58.9,53.0,30.02,WNW,286,2.0,13.0,81,0.00,,,0.00,weatherlink.com 1.10,2013-05-23 14:36:00,
2013-05-23 09:51:00,58.8,53.0,30.02,NNW,336,1.0,14.0,81,0.00,,,0.00,weatherlink.com 1.10,2013-05-23 14:51:00,
2013-05-23 10:06:00,59.0,53.0,30.02,WNW,300,8.0,12.0,81,0.00,,,0.00,weatherlink.com 1.10,2013-05-23 15:06:00,
2013-05-23 10:21:00,59.7,54.0,30.02,NW,318,3.0,12.0,82,0.00,,,0.00,weatherlink.com 1.10,2013-05-23 15:21:00,
2013-05-23 10:36:00,59.9,54.0,30.02,West,280,4.0,10.0,81,0.00,,,0.00,weatherlink.com 1.10,2013-05-23 15:36:00,
2013-05-23 10:51:00,60.0,54.0,30.03,WNW,300,1.0,12.0,81,0.00,,,0.00,weatherlink.com 1.10,2013-05-23 15:51:00,
2013-05-23 11:06:00,60.4,55.0,30.05,WNW,292,0.0,9.0,82,0.00,,,0.00,weatherlink.com 1.10,2013-05-23 16:06:00,
2013-05-23 11:21:00,60.7,55.0,30.06,WSW,254,2.0,8.0,82,0.00,,,0.00,weatherlink.com 1.10,2013-05-23 16:21:00,
2013-05-23 11:37:00,60.4,55.0,30.07,NNW,340,2.0,10.0,81,0.00,,,0.00,weatherlink.com 1.10,2013-05-23 16:37:00,
2013-05-23 11:52:00,60.8,55.0,30.08,West,281,3.0,11.0,81,0.00,,,0.00,weatherlink.com 1.10,2013-05-23 16:52:00,
2013-05-23 12:07:00,60.8,55.0,30.08,NW,314,6.0,10.0,82,0.00,,,0.00,weatherlink.com 1.10,2013-05-23 17:07:00,
2013-05-23 12:22:00,60.9,55.0,30.09,NW,321,2.0,10.0,82,0.00,,,0.00,weatherlink.com 1.10,2013-05-23 17:22:00,
2013-05-23 12:37:00,61.3,56.0,30.09,West,273,6.0,9.0,83,0.00,,,0.00,weatherlink.com 1.10,2013-05-23 17:37:00,
2013-05-23 12:52:00,61.1,56.0,30.09,NW,311,3.0,9.0,83,0.00,,,0.00,weatherlink.com 1.10,2013-05-23 17:52:00,
2013-05-23 13:07:00,61.8,57.0,30.09,North,355,3.0,9.0,83,0.00,,,0.00,weatherlink.com 1.10,2013-05-23 18:07:00,
2013-05-23 13:22:00,62.0,56.0,30.09,NW,306,1.0,10.0,80,0.00,,,0.00,weatherlink.com 1.10,2013-05-23 18:22:00,
2013-05-23 13:37:00,62.7,57.0,30.10,NW,319,4.0,9.0,81,0.00,,,0.00,weatherlink.com 1.10,2013-05-23 18:37:00,
2013-05-23 13:52:00,61.7,56.0,30.10,WNW,297,7.0,12.0,82,0.00,,,0.00,weatherlink.com 1.10,2013-05-23 18:52:00,
2013-05-23 14:07:00,63.2,57.0,30.11,NW,321,2.0,7.0,81,0.00,,,0.00,weatherlink.com 1.10,2013-05-23 19:07:00,
2013-05-23 14:22:00,63.6,57.0,30.11,NNW,336,2.0,9.0,78,0.00,,,0.00,weatherlink.com 1.10,2013-05-23 19:22:00,
2013-05-23 14:37:00,63.1,57.0,30.11,NNW,331,1.0,11.0,81,0.00,,,0.00,weatherlink.com 1.10,2013-05-23 19:37:00,
2013-05-23 14:52:00,62.9,58.0,30.12,WNW,292,4.0,10.0,83,0.00,,,0.00,weatherlink.com 1.10,2013-05-23 19:52:00,
2013-05-23 15:07:00,63.5,57.0,30.12,NNW,342,5.0,7.0,80,0.00,,,0.00,weatherlink.com 1.10,2013-05-23 20:07:00,
2013-05-23 15:22:00,63.7,57.0,30.11,NNW,335,6.0,8.0,79,0.00,,,0.00,weatherlink.com 1.10,2013-05-23 20:22:00,
2013-05-23 15:37:00,62.8,57.0,30.11,NW,308,4.0,8.0,81,0.00,,,0.00,weatherlink.com 1.10,2013-05-23 20:37:00,
2013-05-23 15:52:00,62.9,57.0,30.12,NNE,27,3.0,12.0,80,0.00,,,0.00,weatherlink.com 1.10,2013-05-23 20:52:00,
2013-05-23 16:07:00,62.7,56.0,30.12,North,350,6.0,11.0,78,0.00,,,0.00,weatherlink.com 1.10,2013-05-23 21:07:00,
2013-05-23 16:22:00,62.9,57.0,30.12,North,360,5.0,13.0,80,0.00,,,0.00,weatherlink.com 1.10,2013-05-23 21:22:00,
2013-05-23 16:37:00,62.2,57.0,30.13,NW,321,3.0,9.0,84,0.00,,,0.00,weatherlink.com 1.10,2013-05-23 21:37:00,
2013-05-23 16:52:00,62.2,57.0,30.12,NW,323,4.0,10.0,82,0.00,,,0.00,weatherlink.com 1.10,2013-05-23 21:52:00,
2013-05-23 17:07:00,63.2,57.0,30.12,NNW,342,2.0,8.0,80,0.00,,,0.00,weatherlink.com 1.10,2013-05-23 22:07:00,
2013-05-23 17:22:00,63.6,58.0,30.13,North,5,0.0,8.0,81,0.00,,,0.00,weatherlink.com 1.10,2013-05-23 22:22:00,
2013-05-23 17:37:00,63.3,57.0,30.14,NNW,347,2.0,7.0,79,0.00,,,0.00,weatherlink.com 1.10,2013-05-23 22:37:00,
2013-05-23 17:52:00,62.4,57.0,30.14,NNW,347,1.0,8.0,81,0.00,,,0.00,weatherlink.com 1.10,2013-05-23 22:52:00,
2013-05-23 18:07:00,62.6,56.0,30.15,NW,319,3.0,6.0,80,0.00,,,0.00,weatherlink.com 1.10,2013-05-23 23:07:00,
2013-05-23 18:22:00,63.4,56.0,30.15,NNW,337,0.0,9.0,78,0.00,,,0.00,weatherlink.com 1.10,2013-05-23 23:22:00,
2013-05-23 18:37:00,63.5,56.0,30.14,NW,325,4.0,7.0,77,0.00,,,0.00,weatherlink.com 1.10,2013-05-23 23:37:00,
2013-05-23 18:52:00,63.3,57.0,30.14,North,355,2.0,8.0,79,0.00,,,0.00,weatherlink.com 1.10,2013-05-23 23:52:00,
2013-05-23 19:07:00,62.9,56.0,30.14,NE,34,7.0,9.0,79,0.00,,,0.00,weatherlink.com 1.10,2013-05-24 00:07:00,
2013-05-23 19:22:00,62.6,56.0,30.14,North,360,6.0,11.0,79,0.00,,,0.00,weatherlink.com 1.10,2013-05-24 00:22:00,
2013-05-23 19:37:00,62.1,56.0,30.14,NNE,14,5.0,9.0,79,0.00,,,0.00,weatherlink.com 1.10,2013-05-24 00:37:00,
2013-05-23 19:52:00,61.5,55.0,30.14,NNE,13,4.0,8.0,79,0.00,,,0.00,weatherlink.com 1.10,2013-05-24 00:52:00,
2013-05-23 20:22:00,60.0,54.0,30.14,North,10,2.0,7.0,81,0.00,,,0.00,weatherlink.com 1.10,2013-05-24 01:22:00,
2013-05-23 20:37:00,59.3,54.0,30.15,NNE,20,2.0,6.0,82,0.00,,,0.00,weatherlink.com 1.10,2013-05-24 01:37:00,
2013-05-23 20:52:00,58.5,53.0,30.14,NNE,19,3.0,3.0,83,0.00,,,0.00,weatherlink.com 1.10,2013-05-24 01:52:00,
2013-05-23 21:07:00,57.6,54.0,30.14,NNE,19,1.0,2.0,86,0.00,,,0.00,weatherlink.com 1.10,2013-05-24 02:07:00,
2013-05-23 21:22:00,56.5,53.0,30.15,NNE,19,0.0,3.0,87,0.00,,,0.00,weatherlink.com 1.10,2013-05-24 02:22:00,
2013-05-23 21:37:00,55.9,52.0,30.16,NNE,21,2.0,4.0,88,0.00,,,0.00,weatherlink.com 1.10,2013-05-24 02:37:00,
2013-05-23 21:52:00,55.4,52.0,30.17,NNE,21,1.0,2.0,89,0.00,,,0.00,weatherlink.com 1.10,2013-05-24 02:52:00,
2013-05-23 22:07:00,54.9,52.0,30.18,NNE,21,0.0,0.0,90,0.00,,,0.00,weatherlink.com 1.10,2013-05-24 03:07:00,
2013-05-23 22:23:00,54.1,52.0,30.19,NNE,21,0.0,1.0,91,0.00,,,0.00,weatherlink.com 1.10,2013-05-24 03:23:00,
2013-05-23 22:38:00,53.4,51.0,30.20,NNE,21,0.0,1.0,92,0.00,,,0.00,weatherlink.com 1.10,2013-05-24 03:38:00,
2013-05-23 22:53:00,52.8,51.0,30.20,NNE,21,0.0,0.0,93,0.00,,,0.00,weatherlink.com 1.10,2013-05-24 03:53:00,
2013-05-23 23:08:00,52.4,51.0,30.20,NNE,21,0.0,0.0,93,0.00,,,0.00,weatherlink.com 1.10,2013-05-24 04:08:00,
2013-05-23 23:23:00,51.7,50.0,30.19,NNE,21,1.0,1.0,93,0.00,,,0.00,weatherlink.com 1.10,2013-05-24 04:23:00,
2013-05-23 23:38:00,51.6,50.0,30.20,NNE,21,0.0,2.0,94,0.00,,,0.00,weatherlink.com 1.10,2013-05-24 04:38:00,
2013-05-23 23:53:00,51.3,50.0,30.20,NNE,21,2.0,3.0,95,0.00,,,0.00,weatherlink.com 1.10,2013-05-24 04:53:00,